Powrót do katalogu

ORBCOMM FM 117

AktywnyŁącznośćLEO
NORAD 41188·PAYLOAD·🇺🇸 United States

Wystrzelony Dec 22, 2015 z Cape Canaveral Space Force Station

Loading…

Następne Przeloty (najbliższe 24 godziny)

TLE

ŚwieżeSource: Space-Track

Epoka: Sep 14, 2026, 14:59 UTC

1 41188U 15081K   26257.62467241  .00000406  00000-0  12180-3 0  9996
2 41188  47.0005 117.9146 0003027 260.4873  99.5671 14.58961336573188

Śledź ORBCOMM FM 117 w czasie rzeczywistym z AllMySat

Download on the App Store